STARLINK-2603 (48375 NORAD) Tracking and Keplerian Element Data

This shows tracking and keplerian element data for the satellite.

Feedback or suggestion? Click here.




ElementValue
Catalog48375
NameSTARLINK-2603
Epoch Orbit1336
Epoch Day210.79602138
Epoch Year2021
RAAN350.8977
Inclination53.0554
Eccentricity0.0001262
Argument of Perigee106.1528
Mean Anonmoly253.96
Mean Motion15.06399463
Decay Rate-1.38E-06
L11 48375U 21038Y 21210.79602138 -.00000138 00000-0 96217-5 0 9996
L22 48375 53.0554 350.8977 0001262 106.1528 253.9600 15.06399463 13368

Live tracking and technical data element details for STARLINK-2603 (NORAD 48375). STARLINK-2603 can be tracked NOW for your location showing map with azimuth and elevation plus other details from your city location.

Track the satellite on the map from your city or location and see movement details for azimuth, elevation, latitude, longitude, range, height, and movement on the map or in text.







IsCatalogInMostPopularTable: catalog: 48375, numindb: 28
Update: records affected: 1



GetName: 48375 STARLINK-2603

Hit Count: updated at: Sat, 31 Jul 2021 15:30:26 GMT